Location: Newark
(47.5500°N, 8.6167°E)
Time: 14:17:44
(UTC+00:00)

Envisat - Pass Details

Date: 29 January 2020
Orbit: 764 x 766 km, 98.1° (Epoch: 28 February)

Event Time Altitude Azimuth Distance (km) Brightness Sun altitude
Rises 18:19:57 0° 204° (SSW) 3,221 6.6 -20.0°
Reaches altitude 10° 18:22:46 10° 220° (SW) 2,300 6.1 -20.5°
Maximum altitude 18:26:36 21° 269° (W) 1,658 5.6 -21.1°
Drops below altitude 10° 18:30:27 10° 318° (NW) 2,313 6.0 -21.8°
Sets 18:33:19 0° 334° (NNW) 3,245 6.5 -22.3°
